Weather History for Fort Campbell, KY

Change the Weather History Date:

Monday, May 5, 2014

  Actual Average Record
Temperature  
Mean Temperature 74 °F -  
Max Temperature 85 °F 74 °F 87 °F (2012)
Min Temperature 63 °F 54 °F 41 °F (2011)
Cooling Degree Days 9    
Growing Degree Days 24 (Base 50)    
Moisture  
Dew Point 50 °F    
Average Humidity 44    
Maximum Humidity 62    
Minimum Humidity 28    
Precipitation  
Precipitation 0.00 in - - ()
Sea Level Pressure  
Sea Level Pressure 29.87 in    
Wind  
Wind Speed 10 mph (SW)    
Max Wind Speed 21 mph    
Max Gust Speed 29 mph    
Visibility 10 miles    
Events      
Averages and records for this station are not official NWS values.
T = Trace of Precipitation, MM = Missing Value Source: NWS Daily Summary

Daily Weather History Graph

Daily Weather History Graph

Search for Another Location

Airport:

Trip Planner

Search our weather history database for the weather conditions in past years. The results will help you decide how hot, cold, wet, or windy it might be!

Date:

Astronomy

May. 05, 2014 Rise Set
Actual Time 5:51 AM CDT 7:41 PM CDT
Civil Twilight 5:23 AM CDT 8:10 PM CDT
Nautical Twilight 4:49 AM CDT 8:44 PM CDT
Astronomical Twilight 4:13 AM CDT 9:20 PM CDT
Moon 11:10 AM CDT (5/5) 12:26 AM CDT (5/5)
Length of Visible Light 14h 46m
Length of Day
13h 49m
Waxing Crescent, 37% of the Moon is Illuminated
May 5
Waxing Crescent
May 6
First Quarter
May 14
Full
May 21
Last Quarter
May 28
New

Hourly Weather History & Observations

Time (CDT) Temp. Heat Index Dew Point Humidity Pressure Visibility Wind Dir Wind Speed Gust Speed Precip Events Conditions
12:58 AM 69.1 °F - 49.5 °F 50% 29.90 in 10.0 mi SW 2.3 mph - N/A   Clear
1:58 AM 66.7 °F - 50.2 °F 55% 29.89 in 10.0 mi SSW 5.8 mph - N/A   Clear
2:58 AM 65.5 °F - 50.5 °F 58% 29.89 in 10.0 mi SW 10.4 mph - N/A   Clear
3:58 AM 65.3 °F - 50.2 °F 58% 29.90 in 10.0 mi SSW 9.2 mph - N/A   Clear
4:58 AM 65.7 °F - 50.0 °F 57% 29.90 in 10.0 mi SSW 9.2 mph - N/A   Clear
5:58 AM 63.7 °F - 50.5 °F 62% 29.91 in 10.0 mi SSW 6.9 mph - N/A   Clear
6:58 AM 66.6 °F - 51.1 °F 57% 29.92 in 10.0 mi SSW 4.6 mph - N/A   Clear
7:58 AM 70.3 °F - 53.2 °F 55% 29.92 in 10.0 mi SSW 9.2 mph - N/A   Clear
8:58 AM 74.1 °F - 53.8 °F 49% 29.93 in 10.0 mi WSW 12.7 mph - N/A   Clear
9:58 AM 77.9 °F - 55.0 °F 45% 29.93 in 10.0 mi West 15.0 mph 23.0 mph N/A   Clear
10:58 AM 81.0 °F 80.5 °F 53.6 °F 39% 29.92 in 10.0 mi WSW 19.6 mph 24.2 mph N/A   Clear
11:58 AM 82.0 °F 81.3 °F 54.0 °F 38% 29.91 in 10.0 mi WSW 17.3 mph - N/A   Partly Cloudy
12:58 PM 84.0 °F 82.6 °F 53.4 °F 35% 29.89 in 10.0 mi WSW 20.7 mph 26.5 mph N/A   Scattered Clouds
1:58 PM 85.1 °F - 49.6 °F 29% 29.87 in 10.0 mi SW 20.7 mph 27.6 mph N/A   Clear
2:58 PM 85.5 °F - 48.7 °F 28% 29.84 in 10.0 mi SW 17.3 mph 28.8 mph N/A   Clear
3:58 PM 85.5 °F - 48.6 °F 28% 29.82 in 10.0 mi SW 18.4 mph 25.3 mph N/A   Clear
4:58 PM 85.1 °F - 49.8 °F 29% 29.81 in 10.0 mi WSW 17.3 mph - N/A   Clear
5:58 PM 84.0 °F - 49.3 °F 30% 29.80 in 10.0 mi SW 18.4 mph - N/A   Clear
6:58 PM 81.3 °F - 48.7 °F 32% 29.81 in 10.0 mi SW 10.4 mph - N/A   Clear
7:58 PM 75.0 °F - 49.1 °F 40% 29.81 in 10.0 mi SSW 5.8 mph - N/A   Clear
8:58 PM 73.6 °F - 48.7 °F 41% 29.81 in 10.0 mi South 6.9 mph - N/A   Clear
9:58 PM 71.6 °F - 46.2 °F 40% 29.83 in 10.0 mi South 4.6 mph - N/A   Clear
10:58 PM 68.4 °F - 46.9 °F 46% 29.84 in 10.0 mi SSW 5.8 mph - N/A   Clear
11:58 PM 65.5 °F - 47.3 °F 52% 29.86 in 10.0 mi SSW 4.6 mph - N/A   Clear